Overview Statistics Trail Chart Weather Telemetry Raw packets
 

This is the latest recevied weather packets stored in our database for station/object PY5AL-13. If no packets are shown the sender has not sent any weather packets the latest 10 day(s).

<< 4 5 6 7 8 9 10 >>
Time Temp. Humidity Pressure Rain* Wind** Luminosity Snow
1777692856 26.67° C 65% 1016.1 hPa - - - -
1777691656 26.67° C 63% 1016.2 hPa - - - -
1777690456 26.67° C 63% 1016.6 hPa - - - -
1777689257 27.22° C 59% 1016.7 hPa - - - -
1777688056 27.22° C 62% 1016.7 hPa - - - -
1777686856 27.22° C 62% 1016.7 hPa - - - -
1777685656 27.22° C 63% 1016.7 hPa - - - -
1777684456 27.22° C 62% 1016.8 hPa - - - -
1777683256 27.22° C 55% 1016.9 hPa - - - -
1777682056 27.22° C 61% 1017 hPa - - - -
1777680856 27.22° C 59% 1017.3 hPa - - - -
1777679656 27.22° C 59% 1017.5 hPa - - - -
1777678456 27.22° C 63% 1017.7 hPa - - - -
1777677256 27.22° C 63% 1017.8 hPa - - - -
1777676056 27.78° C 63% 1017.8 hPa - - - -
1777674856 27.78° C 63% 1017.7 hPa - - - -
1777673656 27.78° C 62% 1017.6 hPa - - - -
1777672456 27.22° C 64% 1017.6 hPa - - - -
1777671257 27.78° C 63% 1017.5 hPa - - - -
1777670057 27.78° C 62% 1017.3 hPa - - - -
1777668856 27.22° C 62% 1017.4 hPa - - - -
1777667657 27.22° C 60% 1017.5 hPa - - - -
1777666459 27.22° C 63% 1017.5 hPa - - - -
1777665257 27.22° C 62% 1017.4 hPa - - - -
1777664057 27.22° C 63% 1017.2 hPa - - - -

* Rain since midnight (hover to see other rain measurements)
** Current wind speed in m/s (hover to see current wind gust speed)